TimeCDT,TemperatureF,Dew PointF,Humidity,Sea Level PressureIn,VisibilityMPH,Wind Direction,Wind SpeedMPH,Gust SpeedMPH,PrecipitationIn,Events,Conditions,WindDirDegrees,DateUTC
12:52 AM,68.0,54.0,61,29.77,10.0,South,3.5,-,N/A,,Clear,180,2013-09-14 05:52:00
1:52 AM,66.9,55.0,66,29.75,10.0,South,3.5,-,N/A,,Clear,170,2013-09-14 06:52:00
2:52 AM,66.0,55.0,68,29.75,10.0,South,4.6,-,N/A,,Clear,170,2013-09-14 07:52:00
3:52 AM,64.0,55.0,73,29.74,10.0,Calm,Calm,-,N/A,,Clear,0,2013-09-14 08:52:00
4:52 AM,64.0,55.9,75,29.73,10.0,South,3.5,-,N/A,,Clear,190,2013-09-14 09:52:00
5:52 AM,60.1,55.9,86,29.74,10.0,Calm,Calm,-,N/A,,Clear,0,2013-09-14 10:52:00
6:52 AM,57.9,55.0,90,29.75,10.0,Calm,Calm,-,N/A,,Clear,0,2013-09-14 11:52:00
7:52 AM,57.9,55.9,93,29.76,7.0,North,3.5,-,N/A,,Clear,360,2013-09-14 12:52:00
8:52 AM,62.1,57.9,86,29.77,6.0,Calm,Calm,-,N/A,,Clear,0,2013-09-14 13:52:00
9:52 AM,64.0,57.0,78,29.78,10.0,North,3.5,-,N/A,,Clear,10,2013-09-14 14:52:00
10:52 AM,64.9,57.9,78,29.80,10.0,NE,3.5,-,N/A,,Clear,50,2013-09-14 15:52:00
11:52 AM,71.1,60.1,68,29.81,10.0,NE,5.8,-,N/A,,Clear,40,2013-09-14 16:52:00
12:52 PM,75.9,59.0,56,29.81,10.0,NNE,16.1,-,N/A,,Clear,30,2013-09-14 17:52:00
1:52 PM,77.0,57.9,52,29.83,10.0,NNE,17.3,24.2,N/A,,Clear,30,2013-09-14 18:52:00
2:52 PM,75.9,57.0,52,29.86,10.0,NNE,17.3,24.2,N/A,,Partly Cloudy,30,2013-09-14 19:52:00
3:52 PM,71.1,52.0,51,29.90,10.0,NNE,20.7,29.9,N/A,,Mostly Cloudy,30,2013-09-14 20:52:00
4:52 PM,72.0,51.1,48,29.94,10.0,NE,19.6,29.9,N/A,,Clear,40,2013-09-14 21:52:00
5:52 PM,73.0,48.9,42,29.97,10.0,NE,16.1,21.9,N/A,,Scattered Clouds,50,2013-09-14 22:52:00
6:52 PM,71.1,45.0,39,30.00,10.0,NE,13.8,21.9,N/A,,Clear,40,2013-09-14 23:52:00
7:52 PM,66.9,46.9,49,30.02,10.0,ENE,8.1,-,0.00,Rain,Light Rain,60,2013-09-15 00:52:00
8:52 PM,62.1,46.0,56,30.04,10.0,NE,4.6,-,0.00,,Clear,50,2013-09-15 01:52:00
9:52 PM,55.0,46.9,74,30.07,10.0,NNE,3.5,-,N/A,,Clear,20,2013-09-15 02:52:00
10:52 PM,52.0,46.0,80,30.10,10.0,NNW,6.9,-,N/A,,Clear,340,2013-09-15 03:52:00
11:52 PM,55.9,46.9,72,30.13,10.0,North,8.1,-,N/A,,Clear,10,2013-09-15 04:52:00